Evenes, Norway

10:32 PM CET on December 12, 2017 (GMT +0100)
Evenes

Weather History for ENEV - October, 2017

Change the Weather History Date:

Friday, October 13, 2017

  Actual Average Record
Temperature  
Mean Temperature 42 °F -  
Max Temperature 48 °F 37 °F 49 °F (2015)
Min Temperature 37 °F 29 °F 21 °F (1997)
Degree Days  
Heating Degree Days 23    
Moisture  
Dew Point 31 °F    
Average Humidity 56    
Maximum Humidity 70    
Minimum Humidity 42    
Precipitation  
Precipitation 0.00 in - - ()
Sea Level Pressure  
Sea Level Pressure 29.75 in    
Wind  
Wind Speed 8 mph ()    
Max Wind Speed 20 mph    
Max Gust Speed 28 mph    
Visibility 6.2 miles    
Events      
Averages and records for this station are not official NWS values.
T = Trace of Precipitation, MM = Missing Value Source: Averaged Metar Reports

Daily Weather History Graph

Daily Weather History Graph

Search for Another Location

Airport or City:

Trip Planner

Search our weather history database for the weather conditions in past years. The results will help you decide how hot, cold, wet, or windy it might be!

Date:

Astronomy

Oct. 13, 2017 Rise Set
Actual Time 7:51 AM CEST 5:25 PM CEST
Civil Twilight 6:53 AM CEST 6:23 PM CEST
Nautical Twilight 5:47 AM CEST 7:29 PM CEST
Astronomical Twilight 4:38 AM CEST 8:37 PM CEST
Moon 10:40 PM CEST (10/13) 5:22 PM CEST (10/13)
Length of Visible Light 11h 29m
Length of Day
9h 33m
Last Quarter, 40% of the Moon is Illuminated
Oct 13
Last Quarter
Oct 19
New
Oct 28
First Quarter
Nov 4
Full
Nov 10
Last Quarter

Hourly Weather History & Observations

Time (CEST) Temp. Windchill Dew Point Humidity Pressure Visibility Wind Dir Wind Speed Gust Speed Precip Events Conditions
12:50 AM 44.6 °F 39.7 °F 30.2 °F 57% 29.74 in 6.2 mi SE 9.2 mph - N/A   Overcast
1:00 AM 44 °F - 30 °F 46% 29.76 in - ESE 8.9 mph - -  
1:50 AM 44.6 °F 39.7 °F 30.2 °F 57% 29.77 in 6.2 mi ESE 9.2 mph - N/A   Overcast
2:00 AM 44 °F - 30 °F 46% 29.78 in - SE 6.7 mph - -  
2:20 AM 44.6 °F 42.2 °F 30.2 °F 57% 29.77 in 6.2 mi Variable 4.6 mph - N/A   Overcast
2:50 AM 44.6 °F 43.1 °F 30.2 °F 57% 29.77 in 6.2 mi SSW 3.5 mph - N/A   Overcast
3:00 AM 44 °F - 30 °F 45% 29.80 in - SSW 4.5 mph - -  
3:20 AM 44.6 °F 42.2 °F 30.2 °F 57% 29.80 in 6.2 mi South 4.6 mph - N/A   Overcast
3:50 AM 44.6 °F 42.2 °F 30.2 °F 57% 29.80 in 6.2 mi South 4.6 mph - N/A   Overcast
4:20 AM 44.6 °F 42.2 °F 30.2 °F 57% 29.80 in 6.2 mi South 4.6 mph - N/A   Overcast
4:50 AM 42.8 °F 39.3 °F 30.2 °F 61% 29.80 in 6.2 mi South 5.8 mph - N/A   Overcast
5:00 AM 42 °F - 30 °F 52% 29.83 in - South 6.7 mph - -  
5:20 AM 42.8 °F 39.3 °F 30.2 °F 61% 29.80 in 6.2 mi SSE 5.8 mph - N/A   Mostly Cloudy
5:50 AM 42.8 °F 38.6 °F 30.2 °F 61% 29.83 in 6.2 mi South 6.9 mph - N/A   Overcast
6:00 AM 43 °F - 30 °F 48% 29.83 in - South 6.7 mph - -  
6:50 AM 39.2 °F 33.6 °F 30.2 °F 70% 29.83 in - SSE 8.1 mph - N/A   Clear
7:00 AM 39 °F - 30 °F 61% 29.84 in - South 6.7 mph - -  
7:50 AM 39.2 °F 34.2 °F 30.2 °F 70% 29.83 in - SSE 6.9 mph - N/A   Clear
8:00 AM 39 °F - 30 °F 61% 29.85 in - SSE 6.7 mph - -  
8:50 AM 39.2 °F 35.9 °F 30.2 °F 70% 29.83 in - South 4.6 mph - N/A   Clear
9:00 AM 39 °F - 31 °F 64% 29.86 in - South 6.7 mph - -  
9:50 AM 41.0 °F 38.0 °F 32.0 °F 70% 29.83 in - South 4.6 mph - N/A   Clear
10:50 AM 46.4 °F 42.9 °F 32.0 °F 57% 29.86 in - SSE 6.9 mph - N/A   Clear
11:50 AM 46.4 °F 42.4 °F 30.2 °F 53% 29.83 in 6.2 mi SSE 8.1 mph - N/A   Scattered Clouds
12:00 PM 46 °F - 31 °F 44% 29.85 in - SSE 8.9 mph - -  
1:00 PM 45 °F - 31 °F 46% 29.84 in - SSE 6.7 mph - -  
1:50 PM 46.4 °F 42.4 °F 32.0 °F 57% 29.83 in - South 8.1 mph - N/A   Clear
2:00 PM 47 °F - 31 °F 42% 29.83 in - South 4.5 mph - -  
2:50 PM 46.4 °F 41.5 °F 32.0 °F 57% 29.80 in - SE 10.4 mph - N/A   Clear
3:00 PM 47 °F - 32 °F 44% 29.80 in - SE 8.9 mph - -  
3:50 PM 46.4 °F 41.9 °F 30.2 °F 53% 29.77 in - SE 9.2 mph - N/A   Clear
4:00 PM 46 °F - 31 °F 44% 29.77 in - SE 11.2 mph - -  
4:50 PM 44.6 °F 38.4 °F 30.2 °F 57% 29.74 in - ESE 12.7 mph - N/A   Clear
5:00 PM 45 °F - 31 °F 45% 29.74 in - ESE 13.4 mph - -  
5:20 PM 44.6 °F 38.1 °F 30.2 °F 57% 29.71 in - ESE 13.8 mph - N/A   Clear
5:50 PM 44.6 °F 37.8 °F 32.0 °F 61% 29.71 in - SE 15.0 mph - N/A   Clear
6:20 PM 42.8 °F 35.4 °F 32.0 °F 66% 29.71 in - SE 15.0 mph - N/A   Clear
6:50 PM 42.8 °F 35.8 °F 32.0 °F 66% 29.68 in - SE 13.8 mph - N/A   Clear
7:00 PM 43 °F - 31 °F 53% 29.70 in - SE 13.4 mph - -  
7:20 PM 44.6 °F 37.2 °F 33.8 °F 66% 29.68 in - SE 17.3 mph - N/A   Clear
7:50 PM 44.6 °F 37.8 °F 32.0 °F 61% 29.65 in - SE 15.0 mph - N/A   Clear
8:00 PM 45 °F - 32 °F 48% 29.67 in - ESE 15.7 mph - -  
8:20 PM 44.6 °F 37.8 °F 32.0 °F 61% 29.65 in - Variable 15.0 mph 27.6 mph N/A   Clear
8:50 PM 46.4 °F 39.0 °F 32.0 °F 57% 29.62 in - ESE 19.6 mph - N/A   Clear
9:00 PM 46 °F - 32 °F 46% 29.63 in - ESE 17.9 mph - -  
9:20 PM 46.4 °F 40.4 °F 32.0 °F 57% 29.59 in - SE 13.8 mph - N/A   Clear
9:50 PM 46.4 °F 39.2 °F 32.0 °F 57% 29.59 in - SE 18.4 mph - N/A   Clear
10:20 PM 46.4 °F 39.2 °F 32.0 °F 57% 29.56 in - SE 18.4 mph - N/A   Clear
11:00 PM 47 °F - 31 °F 42% 29.55 in - SE 15.7 mph - -  
11:20 PM 46.4 °F 40.1 °F 32.0 °F 57% 29.53 in 6.2 mi SE 15.0 mph - N/A   Scattered Clouds
11:50 PM 48.2 °F - 30.2 °F 50% 29.50 in 6.2 mi SSE 10.4 mph - N/A   Overcast